Time,TemperatureF,DewpointF,PressureIn,WindDirection,WindDirectionDegrees,WindSpeedMPH,WindSpeedGustMPH,Humidity,HourlyPrecipIn,Conditions,Clouds,dailyrainin,SoftwareType,DateUTC
2013-02-14 00:00:00,31.1,26.0,29.95,West,267,2.5,2.5,81,0.00,CLR,,0.02,WeatherDisplay:10.37,2013-02-14 05:00:00,
2013-02-14 00:05:00,31.1,26.0,29.95,SW,222,5.6,5.8,81,0.00,RA,,0.00,WeatherDisplay:10.37,2013-02-14 05:05:00,
2013-02-14 00:10:00,31.1,26.0,29.95,SSW,199,4.2,4.6,81,0.00,RA,,0.00,WeatherDisplay:10.37,2013-02-14 05:10:00,
2013-02-14 00:15:00,31.1,26.0,29.95,SW,222,2.4,2.4,81,0.00,CLR,,0.00,WeatherDisplay:10.37,2013-02-14 05:15:00,
2013-02-14 00:20:00,30.9,25.8,29.95,SW,222,5.1,5.1,81,0.00,CLR,,0.00,WeatherDisplay:10.37,2013-02-14 05:20:00,
2013-02-14 00:25:00,30.9,25.8,29.95,SSW,199,4.9,4.9,81,0.00,CLR,,0.00,WeatherDisplay:10.37,2013-02-14 05:25:00,
2013-02-14 00:30:00,30.9,25.8,29.95,SSE,155,2.5,2.5,81,0.00,CLR,,0.00,WeatherDisplay:10.37,2013-02-14 05:30:00,
2013-02-14 00:35:00,30.9,25.8,29.95,SSE,155,2.5,3.5,81,0.00,CLR,,0.00,WeatherDisplay:10.37,2013-02-14 05:35:00,
2013-02-14 00:40:00,30.9,25.8,29.95,SSW,199,0.0,0.0,81,0.00,CLR,,0.00,WeatherDisplay:10.37,2013-02-14 05:40:00,
2013-02-14 00:45:00,30.7,25.6,29.95,SW,222,2.2,2.3,81,0.00,CLR,,0.00,WeatherDisplay:10.37,2013-02-14 05:45:00,
2013-02-14 00:50:00,30.7,25.6,29.95,SSW,199,2.0,3.5,81,0.00,CLR,,0.00,WeatherDisplay:10.37,2013-02-14 05:50:00,
2013-02-14 00:55:00,30.7,25.6,29.95,SW,222,4.5,4.6,81,0.00,CLR,,0.00,WeatherDisplay:10.37,2013-02-14 05:55:00,
2013-02-14 01:00:00,30.7,25.6,29.95,WNW,289,1.7,2.3,81,0.00,CLR,,0.00,WeatherDisplay:10.37,2013-02-14 06:00:00,
2013-02-14 01:05:00,30.7,25.6,29.95,SSW,199,3.1,3.5,81,0.00,CLR,,0.00,WeatherDisplay:10.37,2013-02-14 06:05:00,
2013-02-14 01:10:00,30.7,25.9,29.95,SSE,155,2.2,2.3,82,0.00,CLR,,0.00,WeatherDisplay:10.37,2013-02-14 06:10:00,
2013-02-14 01:15:00,30.6,25.7,29.95,South,177,4.5,9.2,82,0.00,CLR,,0.00,WeatherDisplay:10.37,2013-02-14 06:15:00,
2013-02-14 01:20:00,30.6,25.7,29.95,WSW,245,2.9,3.5,82,0.00,CLR,,0.00,WeatherDisplay:10.37,2013-02-14 06:20:00,
2013-02-14 01:25:00,30.6,25.7,29.95,South,177,4.7,4.7,82,0.00,CLR,,0.00,WeatherDisplay:10.37,2013-02-14 06:25:00,
2013-02-14 01:30:00,30.6,25.7,29.95,West,267,5.8,6.9,82,0.00,CLR,,0.00,WeatherDisplay:10.37,2013-02-14 06:30:00,
2013-02-14 01:35:00,30.6,25.7,29.95,SW,222,3.9,8.1,82,0.00,CLR,,0.00,WeatherDisplay:10.37,2013-02-14 06:35:00,
2013-02-14 01:40:00,30.6,25.7,29.95,SSW,199,0.0,0.0,82,0.00,CLR,,0.00,WeatherDisplay:10.37,2013-02-14 06:40:00,
2013-02-14 01:45:00,30.6,25.7,29.95,West,267,3.5,3.5,82,0.00,CLR,,0.00,WeatherDisplay:10.37,2013-02-14 06:45:00,
2013-02-14 01:50:00,30.6,25.7,29.95,South,177,7.4,7.4,82,0.00,CLR,,0.00,WeatherDisplay:10.37,2013-02-14 06:50:00,
2013-02-14 01:55:00,30.4,25.5,29.95,SSW,199,5.8,5.8,82,0.00,CLR,,0.00,WeatherDisplay:10.37,2013-02-14 06:55:00,
2013-02-14 02:00:00,30.4,25.5,29.95,SW,222,2.0,2.3,82,0.00,CLR,,0.00,WeatherDisplay:10.37,2013-02-14 07:00:00,
2013-02-14 02:05:00,30.6,25.7,29.95,SSW,199,7.2,7.2,82,0.00,CLR,,0.00,WeatherDisplay:10.37,2013-02-14 07:05:00,
2013-02-14 02:10:00,30.4,25.8,29.95,SSW,199,3.1,3.5,83,0.00,CLR,,0.00,WeatherDisplay:10.37,2013-02-14 07:10:00,
2013-02-14 02:15:00,30.4,25.8,29.95,SW,222,3.9,5.8,83,0.00,CLR,,0.00,WeatherDisplay:10.37,2013-02-14 07:15:00,
2013-02-14 02:20:00,30.4,25.8,29.95,SSW,199,4.0,4.0,83,0.00,CLR,,0.00,WeatherDisplay:10.37,2013-02-14 07:20:00,
2013-02-14 02:25:00,30.4,25.8,29.95,SSW,199,3.1,3.5,83,0.00,CLR,,0.00,WeatherDisplay:10.37,2013-02-14 07:25:00,
2013-02-14 02:30:00,30.4,25.8,29.95,SSW,199,3.8,5.6,83,0.00,CLR,,0.00,WeatherDisplay:10.37,2013-02-14 07:30:00,
2013-02-14 02:35:00,30.4,25.8,29.94,SSE,155,5.1,5.1,83,0.00,CLR,,0.00,WeatherDisplay:10.37,2013-02-14 07:35:00,
2013-02-14 02:40:00,30.4,25.8,29.95,South,177,6.0,6.0,83,0.00,CLR,,0.00,WeatherDisplay:10.37,2013-02-14 07:40:00,
2013-02-14 02:45:00,30.4,25.8,29.94,South,177,6.4,6.9,83,0.00,CLR,,0.00,WeatherDisplay:10.37,2013-02-14 07:45:00,
2013-02-14 02:50:00,30.4,25.8,29.94,South,177,5.1,5.8,83,0.00,CLR,,0.00,WeatherDisplay:10.37,2013-02-14 07:50:00,
2013-02-14 02:55:00,30.4,25.8,29.94,South,177,2.9,3.5,83,0.00,CLR,,0.00,WeatherDisplay:10.37,2013-02-14 07:55:00,
2013-02-14 03:00:00,30.4,25.8,29.94,SE,132,6.3,6.3,83,0.00,CLR,,0.00,WeatherDisplay:10.37,2013-02-14 08:00:00,
2013-02-14 03:05:00,30.4,25.8,29.94,South,177,2.0,5.8,83,0.00,CLR,,0.00,WeatherDisplay:10.37,2013-02-14 08:05:00,
2013-02-14 03:10:00,30.2,25.7,29.95,WSW,245,2.0,2.3,83,0.00,CLR,,0.00,WeatherDisplay:10.37,2013-02-14 08:10:00,
2013-02-14 03:15:00,30.2,25.7,29.94,SW,222,4.9,5.8,83,0.00,CLR,,0.00,WeatherDisplay:10.37,2013-02-14 08:15:00,
2013-02-14 03:20:00,30.2,25.7,29.94,SSW,199,1.1,3.5,83,0.00,CLR,,0.00,WeatherDisplay:10.37,2013-02-14 08:20:00,
2013-02-14 03:25:00,30.2,25.7,29.95,SSW,199,0.9,1.1,83,0.00,CLR,,0.00,WeatherDisplay:10.37,2013-02-14 08:25:00,
2013-02-14 03:30:00,30.4,25.8,29.94,WSW,245,3.8,3.8,83,0.00,CLR,,0.00,WeatherDisplay:10.37,2013-02-14 08:30:00,
2013-02-14 03:35:00,30.6,26.3,29.94,South,177,4.4,4.6,84,0.00,CLR,,0.00,WeatherDisplay:10.37,2013-02-14 08:35:00,
2013-02-14 03:40:00,30.7,26.5,29.94,South,177,6.0,6.0,84,0.00,CLR,,0.00,WeatherDisplay:10.37,2013-02-14 08:40:00,
2013-02-14 03:45:00,30.9,26.7,29.93,WSW,245,1.8,3.6,84,0.00,CLR,,0.00,WeatherDisplay:10.37,2013-02-14 08:45:00,
2013-02-14 03:50:00,31.1,26.8,29.93,South,177,2.9,3.5,84,0.00,CLR,,0.00,WeatherDisplay:10.37,2013-02-14 08:50:00,
2013-02-14 03:55:00,31.3,27.0,29.93,South,177,5.6,5.8,84,0.00,CLR,,0.00,WeatherDisplay:10.37,2013-02-14 08:55:00,
2013-02-14 04:00:00,31.6,27.4,29.93,SW,222,5.0,5.8,84,0.00,CLR,,0.00,WeatherDisplay:10.37,2013-02-14 09:00:00,
2013-02-14 04:05:00,31.8,27.5,29.93,SSE,155,4.5,4.6,84,0.00,CLR,,0.00,WeatherDisplay:10.37,2013-02-14 09:05:00,
2013-02-14 04:10:00,31.8,27.5,29.93,SW,222,3.8,3.8,84,0.00,OVC,,0.00,WeatherDisplay:10.37,2013-02-14 09:10:00,
2013-02-14 04:15:00,32.2,27.9,29.93,South,177,3.4,3.5,84,0.00,OVC,,0.00,WeatherDisplay:10.37,2013-02-14 09:15:00,
2013-02-14 04:20:00,32.2,27.9,29.93,SSW,199,6.7,6.9,84,0.00,OVC,,0.00,WeatherDisplay:10.37,2013-02-14 09:20:00,
2013-02-14 04:25:00,32.2,27.9,29.93,SW,222,2.2,5.8,84,0.00,OVC,,0.00,WeatherDisplay:10.37,2013-02-14 09:25:00,
2013-02-14 04:30:00,32.4,28.1,29.93,South,177,3.2,8.0,84,0.00,OVC,,0.00,WeatherDisplay:10.37,2013-02-14 09:30:00,
2013-02-14 04:35:00,32.4,28.1,29.93,SSE,155,3.1,6.9,84,0.00,OVC,,0.00,WeatherDisplay:10.37,2013-02-14 09:35:00,
2013-02-14 04:40:00,32.5,28.2,29.93,West,267,2.9,3.5,84,0.00,OVC,,0.00,WeatherDisplay:10.37,2013-02-14 09:40:00,
2013-02-14 04:45:00,32.7,28.4,29.93,South,177,4.4,6.3,84,0.00,OVC,,0.00,WeatherDisplay:10.37,2013-02-14 09:45:00,
2013-02-14 04:50:00,32.7,28.4,29.93,SSW,199,6.7,6.9,84,0.00,OVC,,0.00,WeatherDisplay:10.37,2013-02-14 09:50:00,
2013-02-14 04:55:00,32.7,28.4,29.93,WSW,245,1.6,0.0,84,0.00,OVC,,0.00,WeatherDisplay:10.37,2013-02-14 09:55:00,
2013-02-14 05:00:00,32.9,28.9,29.93,SSW,199,3.5,3.5,85,0.00,OVC,,0.00,WeatherDisplay:10.37,2013-02-14 10:00:00,
2013-02-14 05:05:00,33.1,28.8,29.93,South,177,1.8,3.5,84,0.00,OVC,,0.00,WeatherDisplay:10.37,2013-02-14 10:05:00,
2013-02-14 05:10:00,33.1,28.8,29.93,SSE,155,5.1,5.1,84,0.00,OVC,,0.00,WeatherDisplay:10.37,2013-02-14 10:10:00,
2013-02-14 05:15:00,33.3,28.9,29.93,SW,222,5.6,5.8,84,0.00,OVC,,0.00,WeatherDisplay:10.37,2013-02-14 10:15:00,
2013-02-14 05:20:00,33.3,28.9,29.93,South,177,3.6,3.6,84,0.00,OVC,,0.00,WeatherDisplay:10.37,2013-02-14 10:20:00,
2013-02-14 05:25:00,33.4,29.1,29.93,SSE,155,6.0,6.0,84,0.00,OVC,,0.00,WeatherDisplay:10.37,2013-02-14 10:25:00,
2013-02-14 05:30:00,33.4,29.1,29.93,SE,132,2.7,3.5,84,0.00,OVC,,0.00,WeatherDisplay:10.37,2013-02-14 10:30:00,
2013-02-14 05:35:00,33.6,29.3,29.93,South,177,2.5,3.5,84,0.00,OVC,,0.00,WeatherDisplay:10.37,2013-02-14 10:35:00,
2013-02-14 05:40:00,33.6,29.3,29.93,South,177,6.7,6.9,84,0.00,OVC,,0.00,WeatherDisplay:10.37,2013-02-14 10:40:00,
2013-02-14 05:45:00,33.6,29.3,29.93,SSW,199,3.6,3.8,84,0.00,OVC,,0.00,WeatherDisplay:10.37,2013-02-14 10:45:00,
2013-02-14 05:50:00,33.6,29.3,29.92,SSW,199,10.3,10.4,84,0.00,OVC,,0.00,WeatherDisplay:10.37,2013-02-14 10:50:00,
2013-02-14 05:55:00,33.6,29.3,29.92,West,267,2.5,2.5,84,0.00,OVC,,0.00,WeatherDisplay:10.37,2013-02-14 10:55:00,
2013-02-14 06:00:00,33.8,29.5,29.92,SSW,199,5.9,6.3,84,0.00,OVC,,0.00,WeatherDisplay:10.37,2013-02-14 11:00:00,
2013-02-14 06:05:00,33.8,29.5,29.91,WSW,245,0.0,3.5,84,0.00,OVC,,0.00,WeatherDisplay:10.37,2013-02-14 11:05:00,
2013-02-14 06:10:00,34.0,29.7,29.91,SSW,199,4.2,4.6,84,0.00,OVC,,0.00,WeatherDisplay:10.37,2013-02-14 11:10:00,
2013-02-14 06:15:00,34.0,29.7,29.92,SSE,155,3.6,3.6,84,0.00,OVC,,0.00,WeatherDisplay:10.37,2013-02-14 11:15:00,
2013-02-14 06:20:00,34.0,29.7,29.91,SSE,155,3.1,3.5,84,0.00,OVC,,0.00,WeatherDisplay:10.37,2013-02-14 11:20:00,
2013-02-14 06:25:00,34.2,29.8,29.92,SSW,199,2.5,2.5,84,0.00,OVC,,0.00,WeatherDisplay:10.37,2013-02-14 11:25:00,
2013-02-14 06:30:00,34.2,29.8,29.92,South,177,1.1,2.5,84,0.00,OVC,,0.00,WeatherDisplay:10.37,2013-02-14 11:30:00,
2013-02-14 06:35:00,34.2,29.8,29.92,SSW,199,1.6,1.6,84,0.00,OVC,,0.00,WeatherDisplay:10.37,2013-02-14 11:35:00,
2013-02-14 06:40:00,34.3,30.0,29.92,WSW,245,2.2,2.3,84,0.00,OVC,,0.00,WeatherDisplay:10.37,2013-02-14 11:40:00,
2013-02-14 06:45:00,34.3,30.0,29.92,SSW,199,3.5,8.1,84,0.00,OVC,,0.00,WeatherDisplay:10.37,2013-02-14 11:45:00,
2013-02-14 06:50:00,34.3,30.0,29.93,SSE,155,0.0,1.1,84,0.00,OVC,,0.00,WeatherDisplay:10.37,2013-02-14 11:50:00,
2013-02-14 06:55:00,34.3,30.0,29.92,SSW,199,2.9,8.0,84,0.00,OVC,,0.00,WeatherDisplay:10.37,2013-02-14 11:55:00,
2013-02-14 07:00:00,34.3,30.0,29.93,South,177,4.0,6.9,84,0.00,OVC,,0.00,WeatherDisplay:10.37,2013-02-14 12:00:00,
2013-02-14 07:05:00,34.3,30.0,29.92,South,177,3.8,6.9,84,0.00,OVC,,0.00,WeatherDisplay:10.37,2013-02-14 12:05:00,
2013-02-14 07:10:00,34.3,30.0,29.92,SW,222,5.1,5.1,84,0.00,OVC,,0.00,WeatherDisplay:10.37,2013-02-14 12:10:00,
2013-02-14 07:15:00,34.3,30.0,29.92,SSW,199,3.3,4.6,84,0.00,OVC,,0.00,WeatherDisplay:10.37,2013-02-14 12:15:00,
2013-02-14 07:20:00,34.3,30.0,29.92,SSW,199,3.1,3.5,84,0.00,OVC,,0.00,WeatherDisplay:10.37,2013-02-14 12:20:00,
2013-02-14 07:25:00,34.5,30.2,29.92,SW,222,4.5,4.6,84,0.00,OVC,,0.00,WeatherDisplay:10.37,2013-02-14 12:25:00,
2013-02-14 07:30:00,34.5,30.2,29.92,SW,222,4.6,5.8,84,0.00,OVC,,0.00,WeatherDisplay:10.37,2013-02-14 12:30:00,
2013-02-14 07:35:00,34.7,30.4,29.92,WSW,245,5.0,6.9,84,0.00,OVC,,0.00,WeatherDisplay:10.37,2013-02-14 12:35:00,
2013-02-14 07:40:00,34.7,30.4,29.93,South,177,7.6,8.1,84,0.00,OVC,,0.00,WeatherDisplay:10.37,2013-02-14 12:40:00,
2013-02-14 07:45:00,34.9,30.5,29.92,WSW,245,4.2,4.6,84,0.00,OVC,,0.00,WeatherDisplay:10.37,2013-02-14 12:45:00,
2013-02-14 07:50:00,34.9,30.5,29.92,SSE,155,6.4,6.9,84,0.02,RA,,0.02,WeatherDisplay:10.37,2013-02-14 12:50:00,
2013-02-14 07:55:00,34.9,30.5,29.92,SW,222,1.8,2.3,84,0.02,RA,,0.02,WeatherDisplay:10.37,2013-02-14 12:55:00,
2013-02-14 08:00:00,35.1,30.7,29.92,West,267,5.1,5.1,84,0.02,OVC,,0.02,WeatherDisplay:10.37,2013-02-14 13:00:00,
2013-02-14 08:05:00,35.2,30.9,29.93,SW,222,5.8,5.8,84,0.02,OVC,,0.02,WeatherDisplay:10.37,2013-02-14 13:05:00,
2013-02-14 08:10:00,35.2,30.9,29.93,SW,222,6.5,6.9,84,0.02,OVC,,0.02,WeatherDisplay:10.37,2013-02-14 13:10:00,
2013-02-14 08:15:00,35.2,30.9,29.93,WSW,245,3.6,9.8,84,0.02,OVC,,0.02,WeatherDisplay:10.37,2013-02-14 13:15:00,
2013-02-14 08:20:00,35.4,31.1,29.93,SW,222,4.9,5.8,84,0.02,OVC,,0.02,WeatherDisplay:10.37,2013-02-14 13:20:00,
2013-02-14 08:25:00,35.4,31.1,29.93,SSW,199,3.2,5.4,84,0.02,OVC,,0.02,WeatherDisplay:10.37,2013-02-14 13:25:00,
2013-02-14 08:30:00,35.4,31.1,29.93,SSW,199,7.3,9.2,84,0.02,OVC,,0.02,WeatherDisplay:10.37,2013-02-14 13:30:00,
2013-02-14 08:35:00,35.8,31.4,29.93,West,267,4.9,4.9,84,0.02,OVC,,0.02,WeatherDisplay:10.37,2013-02-14 13:35:00,
2013-02-14 08:40:00,35.8,31.4,29.93,WSW,245,8.3,8.3,84,0.02,OVC,,0.02,WeatherDisplay:10.37,2013-02-14 13:40:00,
2013-02-14 08:45:00,36.1,31.8,29.94,SE,132,4.2,4.6,84,0.02,OVC,,0.02,WeatherDisplay:10.37,2013-02-14 13:45:00,
2013-02-14 08:50:00,36.3,31.9,29.94,SSE,155,4.9,4.9,84,0.00,OVC,,0.02,WeatherDisplay:10.37,2013-02-14 13:50:00,
2013-02-14 08:55:00,36.5,32.1,29.94,South,177,3.8,3.8,84,0.00,OVC,,0.02,WeatherDisplay:10.37,2013-02-14 13:55:00,
2013-02-14 09:00:00,36.9,32.5,29.93,West,267,5.8,10.4,84,0.00,OVC,,0.02,WeatherDisplay:10.37,2013-02-14 14:00:00,
2013-02-14 09:05:00,37.0,32.7,29.94,SSW,199,5.7,5.8,84,0.00,OVC,,0.02,WeatherDisplay:10.37,2013-02-14 14:05:00,
2013-02-14 09:10:00,37.4,33.0,29.94,SSW,199,4.9,4.9,84,0.00,BKN,,0.02,WeatherDisplay:10.37,2013-02-14 14:10:00,
2013-02-14 09:15:00,37.8,33.1,29.93,West,267,6.7,9.2,83,0.00,BKN,,0.02,WeatherDisplay:10.37,2013-02-14 14:15:00,
2013-02-14 09:20:00,37.9,33.2,29.94,SSW,199,4.1,5.8,83,0.00,BKN,,0.02,WeatherDisplay:10.37,2013-02-14 14:20:00,
2013-02-14 09:25:00,38.1,33.4,29.93,SSW,199,4.9,8.7,83,0.00,BKN,,0.02,WeatherDisplay:10.37,2013-02-14 14:25:00,
2013-02-14 09:30:00,38.5,33.8,29.94,South,177,6.1,8.1,83,0.00,BKN,,0.02,WeatherDisplay:10.37,2013-02-14 14:30:00,
2013-02-14 09:35:00,38.8,33.8,29.94,NW,312,3.8,3.8,82,0.00,BKN,,0.02,WeatherDisplay:10.37,2013-02-14 14:35:00,
2013-02-14 09:40:00,39.4,34.3,29.93,SSW,199,9.8,10.4,82,0.00,BKN,,0.02,WeatherDisplay:10.37,2013-02-14 14:40:00,
2013-02-14 09:45:00,39.6,34.5,29.94,SW,222,8.8,12.7,82,0.00,BKN,,0.02,WeatherDisplay:10.37,2013-02-14 14:45:00,
2013-02-14 09:50:00,39.6,34.5,29.93,South,177,4.5,6.9,82,0.00,BKN,,0.02,WeatherDisplay:10.37,2013-02-14 14:50:00,
2013-02-14 09:55:00,40.6,35.3,29.93,WSW,245,13.9,13.9,81,0.00,BKN,,0.02,WeatherDisplay:10.37,2013-02-14 14:55:00,
2013-02-14 10:00:00,41.4,36.0,29.93,WSW,245,6.2,8.1,81,0.00,BKN,,0.02,WeatherDisplay:10.37,2013-02-14 15:00:00,
2013-02-14 10:05:00,42.1,36.7,29.93,SW,222,20.0,20.7,81,0.00,BKN,,0.02,WeatherDisplay:10.37,2013-02-14 15:05:00,
2013-02-14 10:10:00,42.6,36.9,29.93,SW,222,4.5,4.6,80,0.00,SCT,,0.02,WeatherDisplay:10.37,2013-02-14 15:10:00,
2013-02-14 10:15:00,43.3,36.9,29.93,South,177,7.0,8.1,78,0.00,SCT,,0.02,WeatherDisplay:10.37,2013-02-14 15:15:00,
2013-02-14 10:20:00,43.7,37.3,29.94,West,267,10.7,10.7,78,0.00,SCT,,0.02,WeatherDisplay:10.37,2013-02-14 15:20:00,
2013-02-14 10:25:00,44.8,38.0,29.94,SSW,199,7.6,10.5,77,0.00,SCT,,0.02,WeatherDisplay:10.37,2013-02-14 15:25:00,
2013-02-14 10:30:00,45.3,38.2,29.94,SSW,199,11.1,11.5,76,0.00,SCT,,0.02,WeatherDisplay:10.37,2013-02-14 15:30:00,
2013-02-14 10:35:00,45.9,38.7,29.94,WSW,245,9.8,19.6,76,0.00,SCT,,0.02,WeatherDisplay:10.37,2013-02-14 15:35:00,
2013-02-14 10:40:00,46.4,38.9,29.94,SSW,199,4.7,4.7,75,0.00,SCT,,0.02,WeatherDisplay:10.37,2013-02-14 15:40:00,
2013-02-14 10:45:00,47.5,39.6,29.94,SW,222,8.4,16.1,74,0.00,SCT,,0.02,WeatherDisplay:10.37,2013-02-14 15:45:00,
2013-02-14 10:50:00,48.0,39.8,29.93,SSE,155,8.9,10.4,73,0.00,SCT,,0.02,WeatherDisplay:10.37,2013-02-14 15:50:00,
2013-02-14 10:55:00,48.9,40.3,29.94,South,177,3.6,5.6,72,0.00,SCT,,0.02,WeatherDisplay:10.37,2013-02-14 15:55:00,
2013-02-14 11:00:00,49.5,40.1,29.93,West,267,4.5,4.9,70,0.00,SCT,,0.02,WeatherDisplay:10.37,2013-02-14 16:00:00,
2013-02-14 11:05:00,49.6,40.3,29.93,West,267,5.8,5.8,70,0.00,SCT,,0.02,WeatherDisplay:10.37,2013-02-14 16:05:00,
2013-02-14 11:10:00,49.8,40.1,29.93,WSW,245,7.8,8.1,69,0.00,SCT,,0.02,WeatherDisplay:10.37,2013-02-14 16:10:00,
2013-02-14 11:15:00,50.5,40.4,29.93,SSE,155,7.5,8.1,68,0.00,SCT,,0.02,WeatherDisplay:10.37,2013-02-14 16:15:00,
2013-02-14 11:20:00,51.1,40.9,29.93,SSE,155,6.9,8.1,68,0.00,SCT,,0.02,WeatherDisplay:10.37,2013-02-14 16:20:00,
2013-02-14 11:25:00,51.6,40.6,29.93,SW,222,9.8,10.4,66,0.00,SCT,,0.02,WeatherDisplay:10.37,2013-02-14 16:25:00,
2013-02-14 11:30:00,51.8,40.4,29.93,South,177,9.7,10.4,65,0.00,SCT,,0.02,WeatherDisplay:10.37,2013-02-14 16:30:00,
2013-02-14 11:35:00,52.2,40.7,29.92,South,177,16.8,17.3,65,0.00,SCT,,0.02,WeatherDisplay:10.37,2013-02-14 16:35:00,
2013-02-14 11:40:00,52.3,39.7,29.92,WSW,245,17.9,18.4,62,0.00,SCT,,0.02,WeatherDisplay:10.37,2013-02-14 16:40:00,
2013-02-14 11:45:00,52.0,39.8,29.92,SW,222,4.7,5.8,63,0.00,SCT,,0.02,WeatherDisplay:10.37,2013-02-14 16:45:00,
2013-02-14 11:50:00,52.3,40.5,29.92,WSW,245,7.2,9.2,64,0.00,SCT,,0.02,WeatherDisplay:10.37,2013-02-14 16:50:00,
2013-02-14 11:55:00,53.4,41.1,29.93,SSW,199,4.7,4.7,63,0.00,SCT,,0.02,WeatherDisplay:10.37,2013-02-14 16:55:00,
2013-02-14 12:00:00,54.3,41.6,29.92,SSE,155,13.1,15.0,62,0.00,SCT,,0.02,WeatherDisplay:10.37,2013-02-14 17:00:00,
2013-02-14 12:05:00,54.7,41.5,29.92,WNW,289,7.0,12.7,61,0.00,SCT,,0.02,WeatherDisplay:10.37,2013-02-14 17:05:00,
2013-02-14 12:10:00,54.7,41.5,29.92,SSE,155,6.5,11.2,61,0.00,SCT,,0.02,WeatherDisplay:10.37,2013-02-14 17:10:00,
2013-02-14 12:15:00,54.7,41.1,29.92,SW,222,6.7,9.2,60,0.00,SCT,,0.02,WeatherDisplay:10.37,2013-02-14 17:15:00,
2013-02-14 12:20:00,54.9,40.4,29.92,SW,222,11.6,11.6,58,0.00,SCT,,0.02,WeatherDisplay:10.37,2013-02-14 17:20:00,
2013-02-14 12:25:00,55.0,41.4,29.92,SSW,199,10.5,10.5,60,0.00,SCT,,0.02,WeatherDisplay:10.37,2013-02-14 17:25:00,
2013-02-14 12:30:00,55.2,41.1,29.92,WSW,245,11.6,15.0,59,0.00,SCT,,0.02,WeatherDisplay:10.37,2013-02-14 17:30:00,
2013-02-14 12:35:00,55.2,41.1,29.91,SSW,199,6.0,6.0,59,0.00,SCT,,0.02,WeatherDisplay:10.37,2013-02-14 17:35:00,
2013-02-14 12:40:00,55.2,40.2,29.91,West,267,9.6,9.6,57,0.00,SCT,,0.02,WeatherDisplay:10.37,2013-02-14 17:40:00,
2013-02-14 12:45:00,55.2,40.7,29.91,SE,132,4.3,4.6,58,0.00,SCT,,0.02,WeatherDisplay:10.37,2013-02-14 17:45:00,
2013-02-14 12:50:00,55.8,41.2,29.90,SSW,199,6.5,6.9,58,0.00,SCT,,0.02,WeatherDisplay:10.37,2013-02-14 17:50:00,
2013-02-14 12:55:00,56.5,41.0,29.90,SSW,199,10.2,10.4,56,0.00,SCT,,0.02,WeatherDisplay:10.37,2013-02-14 17:55:00,
2013-02-14 13:00:00,56.5,41.4,29.90,South,177,16.3,17.3,57,0.00,SCT,,0.02,WeatherDisplay:10.37,2013-02-14 18:00:00,
2013-02-14 13:05:00,56.8,41.8,29.90,WSW,245,4.7,4.7,57,0.00,SCT,,0.02,WeatherDisplay:10.37,2013-02-14 18:05:00,
2013-02-14 13:10:00,57.4,42.3,29.90,South,177,4.7,13.2,57,0.00,FEW,,0.02,WeatherDisplay:10.37,2013-02-14 18:10:00,
2013-02-14 13:15:00,57.7,42.1,29.90,SSW,199,10.3,13.2,56,0.00,FEW,,0.02,WeatherDisplay:10.37,2013-02-14 18:15:00,
2013-02-14 13:20:00,57.9,41.8,29.90,SW,222,10.9,11.5,55,0.00,FEW,,0.02,WeatherDisplay:10.37,2013-02-14 18:20:00,
2013-02-14 13:25:00,57.9,41.4,29.90,SSE,155,11.9,11.9,54,0.00,FEW,,0.02,WeatherDisplay:10.37,2013-02-14 18:25:00,
2013-02-14 13:30:00,58.1,42.0,29.90,WSW,245,5.2,6.9,55,0.00,FEW,,0.02,WeatherDisplay:10.37,2013-02-14 18:30:00,
2013-02-14 13:35:00,58.6,42.0,29.90,SSW,199,7.8,8.1,54,0.00,FEW,,0.02,WeatherDisplay:10.37,2013-02-14 18:35:00,
2013-02-14 13:40:00,58.8,41.7,29.90,WSW,245,10.1,10.4,53,0.00,FEW,,0.02,WeatherDisplay:10.37,2013-02-14 18:40:00,
2013-02-14 13:45:00,58.8,41.7,29.90,SW,222,6.1,10.4,53,0.00,FEW,,0.02,WeatherDisplay:10.37,2013-02-14 18:45:00,
2013-02-14 13:50:00,58.8,41.2,29.89,WSW,245,10.9,11.5,52,0.00,FEW,,0.02,WeatherDisplay:10.37,2013-02-14 18:50:00,
2013-02-14 13:55:00,58.8,41.2,29.89,SSW,199,6.0,7.6,52,0.00,FEW,,0.02,WeatherDisplay:10.37,2013-02-14 18:55:00,
2013-02-14 14:00:00,58.8,41.7,29.90,West,267,9.9,16.1,53,0.00,FEW,,0.02,WeatherDisplay:10.37,2013-02-14 19:00:00,
2013-02-14 14:05:00,59.2,41.6,29.89,SSW,199,7.8,8.1,52,0.00,FEW,,0.02,WeatherDisplay:10.37,2013-02-14 19:05:00,
2013-02-14 14:10:00,59.4,41.7,29.89,SW,222,7.2,14.7,52,0.00,CLR,,0.02,WeatherDisplay:10.37,2013-02-14 19:10:00,
2013-02-14 14:15:00,59.5,41.9,29.89,SSE,155,10.9,11.6,52,0.00,CLR,,0.02,WeatherDisplay:10.37,2013-02-14 19:15:00,
2013-02-14 14:20:00,59.7,42.1,29.89,SSE,155,3.6,3.6,52,0.00,CLR,,0.02,WeatherDisplay:10.37,2013-02-14 19:20:00,
2013-02-14 14:25:00,59.9,41.2,29.88,West,267,10.6,12.7,50,0.00,CLR,,0.02,WeatherDisplay:10.37,2013-02-14 19:25:00,
2013-02-14 14:30:00,59.5,40.3,29.88,WSW,245,7.5,10.4,49,0.00,CLR,,0.02,WeatherDisplay:10.37,2013-02-14 19:30:00,
2013-02-14 14:35:00,58.8,39.2,29.89,WSW,245,10.7,10.7,48,0.00,CLR,,0.02,WeatherDisplay:10.37,2013-02-14 19:35:00,
2013-02-14 14:40:00,58.8,40.2,29.88,WSW,245,19.2,20.7,50,0.00,CLR,,0.02,WeatherDisplay:10.37,2013-02-14 19:40:00,
2013-02-14 14:45:00,59.2,40.5,29.89,WSW,245,8.9,10.4,50,0.00,CLR,,0.02,WeatherDisplay:10.37,2013-02-14 19:45:00,
2013-02-14 14:50:00,58.8,39.2,29.88,WSW,245,8.9,9.2,48,0.00,CLR,,0.02,WeatherDisplay:10.37,2013-02-14 19:50:00,
2013-02-14 14:55:00,58.3,39.2,29.89,WSW,245,8.9,10.4,49,0.00,CLR,,0.02,WeatherDisplay:10.37,2013-02-14 19:55:00,
2013-02-14 15:00:00,58.5,39.9,29.88,WSW,245,7.1,7.4,50,0.00,CLR,,0.02,WeatherDisplay:10.37,2013-02-14 20:00:00,
2013-02-14 15:05:00,58.8,39.7,29.88,SW,222,8.9,9.2,49,0.00,CLR,,0.02,WeatherDisplay:10.37,2013-02-14 20:05:00,
2013-02-14 15:10:00,58.8,39.7,29.88,SSW,199,4.8,5.8,49,0.00,FEW,,0.02,WeatherDisplay:10.37,2013-02-14 20:10:00,
2013-02-14 15:15:00,58.8,39.2,29.88,West,267,5.4,5.8,48,0.00,FEW,,0.02,WeatherDisplay:10.37,2013-02-14 20:15:00,
2013-02-14 15:20:00,58.8,39.7,29.89,WSW,245,6.5,6.9,49,0.00,FEW,,0.02,WeatherDisplay:10.37,2013-02-14 20:20:00,
2013-02-14 15:25:00,58.6,39.0,29.89,West,267,9.8,10.4,48,0.00,FEW,,0.02,WeatherDisplay:10.37,2013-02-14 20:25:00,
2013-02-14 15:30:00,57.9,38.3,29.89,WSW,245,8.2,10.4,48,0.00,FEW,,0.02,WeatherDisplay:10.37,2013-02-14 20:30:00,
2013-02-14 15:35:00,58.1,39.0,29.88,WSW,245,4.7,4.7,49,0.00,FEW,,0.02,WeatherDisplay:10.37,2013-02-14 20:35:00,
2013-02-14 15:40:00,58.3,38.1,29.88,West,267,14.0,15.0,47,0.00,FEW,,0.02,WeatherDisplay:10.37,2013-02-14 20:40:00,
2013-02-14 15:45:00,58.3,38.1,29.89,West,267,2.0,5.8,47,0.00,FEW,,0.02,WeatherDisplay:10.37,2013-02-14 20:45:00,
2013-02-14 15:50:00,58.1,38.0,29.89,West,267,10.7,10.7,47,0.00,FEW,,0.02,WeatherDisplay:10.37,2013-02-14 20:50:00,
2013-02-14 15:55:00,57.9,37.8,29.89,West,267,11.2,11.5,47,0.00,FEW,,0.02,WeatherDisplay:10.37,2013-02-14 20:55:00,
2013-02-14 16:00:00,58.1,38.5,29.89,South,177,4.5,4.6,48,0.00,FEW,,0.02,WeatherDisplay:10.37,2013-02-14 21:00:00,
2013-02-14 16:05:00,58.1,38.0,29.89,West,267,5.6,6.9,47,0.00,FEW,,0.02,WeatherDisplay:10.37,2013-02-14 21:05:00,
2013-02-14 16:10:00,57.9,36.7,29.90,West,267,14.3,14.3,45,0.00,FEW,,0.02,WeatherDisplay:10.37,2013-02-14 21:10:00,
2013-02-14 16:15:00,57.7,37.1,29.90,West,267,10.2,10.4,46,0.00,FEW,,0.02,WeatherDisplay:10.37,2013-02-14 21:15:00,
2013-02-14 16:20:00,57.6,36.4,29.90,WNW,289,5.4,5.8,45,0.00,FEW,,0.02,WeatherDisplay:10.37,2013-02-14 21:20:00,
2013-02-14 16:25:00,57.2,36.6,29.89,West,267,4.1,4.6,46,0.00,FEW,,0.02,WeatherDisplay:10.37,2013-02-14 21:25:00,
2013-02-14 16:30:00,57.0,36.4,29.90,WSW,245,10.5,15.0,46,0.00,FEW,,0.02,WeatherDisplay:10.37,2013-02-14 21:30:00,
2013-02-14 16:35:00,56.5,35.9,29.90,WNW,289,10.7,13.8,46,0.00,FEW,,0.02,WeatherDisplay:10.37,2013-02-14 21:35:00,
2013-02-14 16:40:00,56.1,36.1,29.90,SW,222,4.0,7.6,47,0.00,FEW,,0.02,WeatherDisplay:10.37,2013-02-14 21:40:00,
2013-02-14 16:45:00,56.5,37.0,29.90,West,267,13.2,13.2,48,0.00,FEW,,0.02,WeatherDisplay:10.37,2013-02-14 21:45:00,
2013-02-14 16:50:00,56.3,36.3,29.90,SW,222,7.8,8.1,47,0.00,FEW,,0.02,WeatherDisplay:10.37,2013-02-14 21:50:00,
2013-02-14 16:55:00,55.9,36.0,29.91,West,267,4.7,4.7,47,0.00,FEW,,0.02,WeatherDisplay:10.37,2013-02-14 21:55:00,
2013-02-14 17:00:00,55.8,36.4,29.90,WSW,245,8.2,9.2,48,0.00,FEW,,0.02,WeatherDisplay:10.37,2013-02-14 22:00:00,
2013-02-14 17:05:00,55.8,36.4,29.90,West,267,6.9,6.9,48,0.00,FEW,,0.02,WeatherDisplay:10.37,2013-02-14 22:05:00,
2013-02-14 17:10:00,55.6,35.7,29.91,WSW,245,7.4,8.1,47,0.00,FEW,,0.02,WeatherDisplay:10.37,2013-02-14 22:10:00,
2013-02-14 17:15:00,55.4,35.5,29.91,WNW,289,8.7,9.2,47,0.00,FEW,,0.02,WeatherDisplay:10.37,2013-02-14 22:15:00,
2013-02-14 17:20:00,55.2,34.8,29.91,West,267,7.4,7.4,46,0.00,FEW,,0.02,WeatherDisplay:10.37,2013-02-14 22:20:00,
2013-02-14 17:25:00,55.2,34.8,29.91,West,267,3.6,3.8,46,0.00,FEW,,0.02,WeatherDisplay:10.37,2013-02-14 22:25:00,
2013-02-14 17:30:00,55.0,35.2,29.92,WSW,245,5.2,5.8,47,0.00,FEW,,0.02,WeatherDisplay:10.37,2013-02-14 22:30:00,
2013-02-14 17:35:00,55.0,35.2,29.91,SW,222,3.6,3.6,47,0.00,FEW,,0.02,WeatherDisplay:10.37,2013-02-14 22:35:00,
2013-02-14 17:40:00,55.0,35.2,29.92,WSW,245,4.0,4.0,47,0.00,FEW,,0.02,WeatherDisplay:10.37,2013-02-14 22:40:00,
2013-02-14 17:45:00,54.7,34.3,29.92,WSW,245,9.2,9.2,46,0.00,FEW,,0.02,WeatherDisplay:10.37,2013-02-14 22:45:00,
2013-02-14 17:50:00,54.3,33.4,29.93,SSE,155,6.0,6.0,45,0.00,FEW,,0.02,WeatherDisplay:10.37,2013-02-14 22:50:00,
2013-02-14 17:55:00,54.0,33.6,29.92,NW,312,4.1,5.8,46,0.00,FEW,,0.02,WeatherDisplay:10.37,2013-02-14 22:55:00,
2013-02-14 18:00:00,53.4,33.7,29.93,West,267,2.5,3.5,47,0.00,FEW,,0.02,WeatherDisplay:10.37,2013-02-14 23:00:00,
2013-02-14 18:05:00,53.2,33.5,29.93,SE,132,3.4,3.5,47,0.00,FEW,,0.02,WeatherDisplay:10.37,2013-02-14 23:05:00,
2013-02-14 18:10:00,52.7,33.5,29.93,WNW,289,10.6,11.5,48,0.00,FEW,,0.02,WeatherDisplay:10.37,2013-02-14 23:10:00,
2013-02-14 18:15:00,52.3,33.2,29.94,West,267,11.2,11.5,48,0.00,FEW,,0.02,WeatherDisplay:10.37,2013-02-14 23:15:00,
2013-02-14 18:20:00,52.2,33.6,29.94,West,267,0.9,6.9,49,0.00,FEW,,0.02,WeatherDisplay:10.37,2013-02-14 23:20:00,
2013-02-14 18:25:00,51.6,33.6,29.94,WSW,245,7.6,8.1,50,0.00,FEW,,0.02,WeatherDisplay:10.37,2013-02-14 23:25:00,
2013-02-14 18:30:00,51.4,33.4,29.94,West,267,2.2,2.3,50,0.00,FEW,,0.02,WeatherDisplay:10.37,2013-02-14 23:30:00,
2013-02-14 18:35:00,51.1,33.6,29.94,WNW,289,4.5,4.6,51,0.00,FEW,,0.02,WeatherDisplay:10.37,2013-02-14 23:35:00,
2013-02-14 18:40:00,50.7,33.2,29.94,SSW,199,3.2,3.5,51,0.00,FEW,,0.02,WeatherDisplay:10.37,2013-02-14 23:40:00,
2013-02-14 18:45:00,50.4,33.4,29.94,West,267,4.0,5.8,52,0.00,FEW,,0.02,WeatherDisplay:10.37,2013-02-14 23:45:00,
2013-02-14 18:50:00,50.2,33.2,29.95,West,267,2.7,2.7,52,0.00,FEW,,0.02,WeatherDisplay:10.37,2013-02-14 23:50:00,
2013-02-14 18:55:00,49.6,32.7,29.95,West,267,3.6,3.6,52,0.00,FEW,,0.02,WeatherDisplay:10.37,2013-02-14 23:55:00,
2013-02-14 19:00:00,49.6,33.2,29.94,West,267,2.8,4.6,53,0.00,FEW,,0.02,WeatherDisplay:10.37,2013-02-15 00:00:00,
2013-02-14 19:05:00,49.3,32.9,29.95,West,267,3.4,3.5,53,0.00,FEW,,0.02,WeatherDisplay:10.37,2013-02-15 00:05:00,
2013-02-14 19:10:00,49.3,33.3,29.95,West,267,2.0,2.3,54,0.00,CLR,,0.02,WeatherDisplay:10.37,2013-02-15 00:10:00,
2013-02-14 19:15:00,49.3,33.3,29.95,West,267,0.0,0.0,54,0.00,CLR,,0.02,WeatherDisplay:10.37,2013-02-15 00:15:00,
2013-02-14 19:20:00,48.7,32.8,29.95,West,267,2.9,3.5,54,0.00,CLR,,0.02,WeatherDisplay:10.37,2013-02-15 00:20:00,
2013-02-14 19:25:00,48.7,32.8,29.96,SW,222,2.5,3.5,54,0.00,CLR,,0.02,WeatherDisplay:10.37,2013-02-15 00:25:00,
2013-02-14 19:30:00,48.7,33.3,29.96,West,267,3.1,3.5,55,0.00,CLR,,0.02,WeatherDisplay:10.37,2013-02-15 00:30:00,
2013-02-14 19:35:00,48.0,32.6,29.96,West,267,0.9,1.1,55,0.00,CLR,,0.02,WeatherDisplay:10.37,2013-02-15 00:35:00,
2013-02-14 19:40:00,48.0,33.1,29.96,WSW,245,3.4,3.5,56,0.00,CLR,,0.02,WeatherDisplay:10.37,2013-02-15 00:40:00,
2013-02-14 19:45:00,48.0,33.1,29.96,WSW,245,0.9,1.1,56,0.00,CLR,,0.02,WeatherDisplay:10.37,2013-02-15 00:45:00,
2013-02-14 19:50:00,48.0,33.1,29.96,WSW,245,0.9,0.0,56,0.00,CLR,,0.02,WeatherDisplay:10.37,2013-02-15 00:50:00,
2013-02-14 19:55:00,48.0,33.5,29.96,West,267,0.0,1.1,57,0.00,CLR,,0.02,WeatherDisplay:10.37,2013-02-15 00:55:00,
2013-02-14 20:00:00,46.9,32.5,29.96,WSW,245,1.2,0.0,57,0.00,CLR,,0.02,WeatherDisplay:10.37,2013-02-15 01:00:00,
2013-02-14 20:05:00,46.6,32.1,29.96,SW,222,0.3,1.1,57,0.00,CLR,,0.02,WeatherDisplay:10.37,2013-02-15 01:05:00,
2013-02-14 20:10:00,46.4,32.4,29.96,WSW,245,0.0,0.0,58,0.00,CLR,,0.02,WeatherDisplay:10.37,2013-02-15 01:10:00,
2013-02-14 20:15:00,46.0,32.1,29.96,WSW,245,0.0,0.0,58,0.00,CLR,,0.02,WeatherDisplay:10.37,2013-02-15 01:15:00,
2013-02-14 20:20:00,45.7,31.7,29.96,WSW,245,0.0,0.0,58,0.00,CLR,,0.02,WeatherDisplay:10.37,2013-02-15 01:20:00,
2013-02-14 20:25:00,45.7,32.2,29.97,WSW,245,0.0,0.0,59,0.00,CLR,,0.02,WeatherDisplay:10.37,2013-02-15 01:25:00,
2013-02-14 20:30:00,45.1,32.1,29.97,West,267,0.0,0.0,60,0.00,CLR,,0.02,WeatherDisplay:10.37,2013-02-15 01:30:00,
2013-02-14 20:35:00,45.1,32.1,29.97,WSW,245,0.0,0.0,60,0.00,CLR,,0.02,WeatherDisplay:10.37,2013-02-15 01:35:00,
2013-02-14 20:40:00,45.1,32.1,29.97,WSW,245,0.0,0.0,60,0.00,CLR,,0.02,WeatherDisplay:10.37,2013-02-15 01:40:00,
2013-02-14 20:45:00,45.0,31.9,29.97,WSW,245,0.0,0.0,60,0.00,CLR,,0.02,WeatherDisplay:10.37,2013-02-15 01:45:00,
2013-02-14 20:50:00,45.0,31.9,29.97,West,267,0.0,0.0,60,0.00,CLR,,0.02,WeatherDisplay:10.37,2013-02-15 01:50:00,
2013-02-14 20:55:00,44.8,32.1,29.97,West,267,1.3,1.3,61,0.00,CLR,,0.02,WeatherDisplay:10.37,2013-02-15 01:55:00,
2013-02-14 21:00:00,44.8,32.1,29.97,West,267,1.5,2.3,61,0.00,CLR,,0.02,WeatherDisplay:10.37,2013-02-15 02:00:00,
2013-02-14 21:05:00,44.8,32.1,29.97,West,267,0.0,0.0,61,0.00,CLR,,0.02,WeatherDisplay:10.37,2013-02-15 02:05:00,
2013-02-14 21:10:00,44.8,32.1,29.97,WSW,245,2.0,2.3,61,0.00,CLR,,0.02,WeatherDisplay:10.37,2013-02-15 02:10:00,
2013-02-14 21:15:00,44.8,32.1,29.97,WNW,289,0.9,1.1,61,0.00,CLR,,0.02,WeatherDisplay:10.37,2013-02-15 02:15:00,
2013-02-14 21:20:00,44.8,32.1,29.97,West,267,0.0,0.0,61,0.00,CLR,,0.02,WeatherDisplay:10.37,2013-02-15 02:20:00,
2013-02-14 21:25:00,44.8,32.1,29.97,West,267,0.0,0.0,61,0.00,CLR,,0.02,WeatherDisplay:10.37,2013-02-15 02:25:00,
2013-02-14 21:30:00,44.6,32.0,29.97,West,267,0.0,0.0,61,0.00,CLR,,0.02,WeatherDisplay:10.37,2013-02-15 02:30:00,
2013-02-14 21:35:00,44.8,32.5,29.97,WNW,289,2.0,2.3,62,0.00,CLR,,0.02,WeatherDisplay:10.37,2013-02-15 02:35:00,
2013-02-14 21:40:00,45.1,32.9,29.98,NW,312,1.3,2.9,62,0.00,CLR,,0.02,WeatherDisplay:10.37,2013-02-15 02:40:00,
2013-02-14 21:45:00,45.5,32.8,29.98,NW,312,2.9,3.5,61,0.00,CLR,,0.02,WeatherDisplay:10.37,2013-02-15 02:45:00,
2013-02-14 21:50:00,45.7,33.0,29.98,NW,312,2.0,2.3,61,0.00,CLR,,0.02,WeatherDisplay:10.37,2013-02-15 02:50:00,
2013-02-14 21:55:00,45.7,33.0,29.98,NW,312,2.2,2.3,61,0.00,CLR,,0.02,WeatherDisplay:10.37,2013-02-15 02:55:00,
2013-02-14 22:00:00,45.7,33.0,29.98,West,267,1.6,2.3,61,0.00,CLR,,0.02,WeatherDisplay:10.37,2013-02-15 03:00:00,
2013-02-14 22:05:00,45.7,33.0,29.98,NW,312,0.0,0.0,61,0.00,CLR,,0.02,WeatherDisplay:10.37,2013-02-15 03:05:00,
2013-02-14 22:10:00,45.7,33.0,29.97,West,267,0.0,0.0,61,0.00,CLR,,0.02,WeatherDisplay:10.37,2013-02-15 03:10:00,
2013-02-14 22:15:00,45.3,32.7,29.97,West,267,0.0,1.1,61,0.00,CLR,,0.02,WeatherDisplay:10.37,2013-02-15 03:15:00,
2013-02-14 22:20:00,45.1,32.5,29.98,SW,222,2.7,2.7,61,0.00,CLR,,0.02,WeatherDisplay:10.37,2013-02-15 03:20:00,
2013-02-14 22:25:00,45.0,32.3,29.98,West,267,0.0,0.0,61,0.00,CLR,,0.02,WeatherDisplay:10.37,2013-02-15 03:25:00,
2013-02-14 22:30:00,44.6,32.0,29.98,West,267,0.0,0.0,61,0.00,CLR,,0.02,WeatherDisplay:10.37,2013-02-15 03:30:00,
2013-02-14 22:35:00,44.6,32.4,29.98,West,267,0.1,1.6,62,0.00,CLR,,0.02,WeatherDisplay:10.37,2013-02-15 03:35:00,
2013-02-14 22:40:00,44.2,32.0,29.98,West,267,1.6,2.3,62,0.00,CLR,,0.02,WeatherDisplay:10.37,2013-02-15 03:40:00,
2013-02-14 22:45:00,44.2,32.0,29.98,West,267,0.0,1.1,62,0.00,CLR,,0.02,WeatherDisplay:10.37,2013-02-15 03:45:00,
2013-02-14 22:50:00,44.2,32.4,29.98,WNW,289,1.2,1.2,63,0.00,CLR,,0.02,WeatherDisplay:10.37,2013-02-15 03:50:00,
2013-02-14 22:55:00,44.2,32.4,29.98,West,267,0.0,0.0,63,0.00,CLR,,0.02,WeatherDisplay:10.37,2013-02-15 03:55:00,
2013-02-14 23:00:00,44.4,32.6,29.98,WNW,289,0.0,0.0,63,0.00,CLR,,0.02,WeatherDisplay:10.37,2013-02-15 04:00:00,
2013-02-14 23:05:00,44.2,32.4,29.98,West,267,0.0,1.1,63,0.00,CLR,,0.02,WeatherDisplay:10.37,2013-02-15 04:05:00,
2013-02-14 23:10:00,44.2,32.0,29.98,West,267,0.0,0.0,62,0.00,BKN,,0.02,WeatherDisplay:10.37,2013-02-15 04:10:00,
2013-02-14 23:15:00,44.2,32.4,29.98,WNW,289,0.1,2.3,63,0.00,BKN,,0.02,WeatherDisplay:10.37,2013-02-15 04:15:00,
2013-02-14 23:20:00,43.9,32.1,29.98,West,267,0.5,0.0,63,0.00,BKN,,0.02,WeatherDisplay:10.37,2013-02-15 04:20:00,
2013-02-14 23:25:00,44.1,32.3,29.98,NW,312,0.0,2.2,63,0.00,BKN,,0.02,WeatherDisplay:10.37,2013-02-15 04:25:00,
2013-02-14 23:30:00,44.2,32.4,29.99,WNW,289,0.0,0.0,63,0.00,BKN,,0.02,WeatherDisplay:10.37,2013-02-15 04:30:00,
2013-02-14 23:35:00,44.2,32.4,29.98,WNW,289,1.8,2.3,63,0.00,BKN,,0.02,WeatherDisplay:10.37,2013-02-15 04:35:00,
2013-02-14 23:40:00,44.4,32.6,29.98,NW,312,3.9,6.9,63,0.00,BKN,,0.02,WeatherDisplay:10.37,2013-02-15 04:40:00,
2013-02-14 23:45:00,44.4,32.6,29.98,WNW,289,0.9,3.5,63,0.00,BKN,,0.02,WeatherDisplay:10.37,2013-02-15 04:45:00,
2013-02-14 23:50:00,44.4,32.2,29.98,NW,312,3.1,3.5,62,0.00,BKN,,0.02,WeatherDisplay:10.37,2013-02-15 04:50:00,
2013-02-14 23:55:00,44.6,32.4,29.98,NW,312,4.0,6.9,62,0.00,BKN,,0.02,WeatherDisplay:10.37,2013-02-15 04:55:00,